GW3084 Weather Reports


time (UTC)temp
F
wind
direction
speed
knots
gust
knots
rain 1hr
in
rain 24hr
in
rain mn
in
humidity
%
barometer
mb
20260906163016 78 124 2.6 5.2 0.00 0.00 0.00 69 1021.6
20260906162052 79 121 1.7 6.1 0.00 0.00 0.00 68 1021.6
20260906161029 78 108 1.7 5.2 0.00 0.00 0.00 69 1021.5
20260906160026 78 123 0.9 5.2 0.00 0.00 0.00 69 1021.6
20260906155043 77 124 1.7 6.1 0.00 0.00 0.00 71 1021.7
20260906154019 76 118 2.6 7.0 0.00 0.00 0.00 71 1021.8
20260906153017 76 105 3.5 7.0 0.00 0.00 0.00 70 1021.7
20260906152033 76 118 1.7 5.2 0.00 0.00 0.00 70 1021.6
20260906151030 77 95 2.6 6.1 0.00 0.00 0.00 68 1021.4
20260906150026 77 106 2.6 6.1 0.00 0.00 0.00 67 1021.4
20260906145043 78 114 1.7 5.2 0.00 0.00 0.00 66 1021.4
20260906144020 78 113 1.7 5.2 0.00 0.00 0.00 66 1021.4
20260906143037 78 106 1.7 3.5 0.00 0.00 0.00 67 1021.4
20260906142034 77 113 0.9 3.5 0.00 0.00 0.00 70 1021.4
20260906141051 76 105 2.6 6.1 0.00 0.00 0.00 70 1021.2
20260906140048 76 106 1.7 5.2 0.00 0.00 0.00 70 1021.1
20260906134022 75 116 0.9 3.5 0.00 0.00 0.00 75 1021.0
20260906133019 72 115 0.9 3.5 0.00 0.00 0.00 79 1021.0
20260906132034 70 117 0.0 1.7 0.00 0.00 0.00 82 1021.1
20260906131031 71 122 0.0 2.6 0.00 0.00 0.00 81 1021.1
20260906130028 73 106 0.9 2.6 0.00 0.00 0.00 80 1020.9
20260906125025 71 118 0.9 2.6 0.00 0.00 0.00 86 1020.7
20260906124022 67 102 0.0 1.7 0.00 0.00 0.00 93 1020.5
20260906123018 66 92 0.0 0.9 0.00 0.00 0.00 95 1020.5
20260906122035 65 96 0.0 0.9 0.00 0.00 0.00 96 1020.4
20260906121032 65 304 0.0 0.9 0.00 0.00 0.00 96 1020.3
20260906120029 65 305 0.0 0.9 0.00 0.00 0.00 95 1020.1
20260906115025 65 305 0.0 0.9 0.00 0.00 0.00 95 1020.0
20260906114022 65 307 0.0 0.9 0.00 0.00 0.00 94 1019.9
20260906113039 65 225 0.0 0.9 0.00 0.00 0.00 95 1019.7
20260906112034 65 279 0.0 0.9 0.00 0.00 0.00 95 1019.6
20260906111032 65 250 0.0 0.9 0.00 0.00 0.00 95 1019.6
20260906110026 65 256 0.0 0.9 0.00 0.00 0.00 95 1019.5
20260906105041 65 233 0.0 1.7 0.00 0.00 0.00 95 1019.5
20260906104017 65 265 0.0 0.9 0.00 0.00 0.00 95 1019.4
20260906103034 65 233 0.0 0.9 0.00 0.00 0.00 96 1019.3
20260906102030 65 249 0.0 0.9 0.00 0.00 0.00 96 1019.4
20260906101026 66 272 0.0 0.9 0.00 0.00 0.00 96 1019.4
20260906100044 66 221 0.0 1.7 0.00 0.00 0.00 97 1019.4
20260906095020 66 266 0.0 1.7 0.00 0.00 0.00 99 1019.3
20260906094016 65 256 0.9 1.7 0.00 0.00 0.00 99 1019.1
20260906093033 65 214 0.0 1.7 0.00 0.00 0.00 99 1019.1
20260906092030 64 236 0.0 1.7 0.00 0.00 0.00 99 1019.1
20260906091027 63 0.0 0.0 0.00 0.00 0.00 99 1019.0
20260906090024 63 226 0.0 0.9 0.00 0.00 0.00 99 1019.1
20260906085020 64 0.0 0.0 0.00 0.00 0.00 99 1019.1
20260906084038 64 0.0 0.0 0.00 0.00 0.00 99 1019.2
20260906083034 65 324 0.0 0.9 0.00 0.00 0.00 98 1019.1
20260906082030 66 332 0.0 1.7 0.00 0.00 0.00 99 1019.1
20260906081027 66 339 0.9 2.6 0.00 0.00 0.00 99 1019.0
20260906080024 66 340 0.0 1.7 0.00 0.00 0.00 99 1018.9
20260906075041 65 338 0.9 1.7 0.00 0.00 0.00 99 1018.8
20260906074019 65 338 0.9 2.6 0.00 0.00 0.00 99 1018.6
20260906073035 65 335 1.7 3.5 0.00 0.00 0.00 99 1018.5
20260906072031 65 335 0.9 2.6 0.00 0.00 0.00 99 1018.4
20260906071028 66 342 1.7 3.5 0.00 0.00 0.00 99 1018.5
20260906070025 66 356 0.9 2.6 0.00 0.00 0.00 99 1018.5
20260906065022 66 347 1.7 2.6 0.00 0.00 0.00 99 1018.5
20260906064018 66 354 0.9 2.6 0.00 0.00 0.00 99 1018.4
20260906063035 65 352 0.9 3.5 0.00 0.00 0.00 99 1018.4
20260906062032 65 351 0.9 2.6 0.00 0.00 0.00 99 1018.4
20260906061029 65 355 0.9 2.6 0.00 0.00 0.00 99 1018.4
20260906060027 65 4 0.9 2.6 0.00 0.00 0.00 98 1018.3
20260906055022 66 351 0.9 3.5 0.00 0.00 0.00 98 1018.3
20260906054019 66 344 1.7 5.2 0.00 0.00 0.00 97 1018.1
20260906053016 66 349 1.7 7.8 0.00 0.00 0.00 97 1018.1
20260906052033 66 348 2.6 5.2 0.00 0.00 0.00 96 1018.2
20260906051031 66 345 2.6 6.1 0.00 0.00 0.00 96 1018.1
20260906050024 66 344 1.7 5.2 0.00 0.00 0.00 96 1018.3
20260906045020 66 344 1.7 6.1 0.00 0.00 0.00 96 1018.2
20260906044016 66 340 1.7 6.1 0.00 0.00 0.00 96 1018.2
20260906043033 66 340 2.6 6.1 0.00 0.00 0.00 96 1018.1
20260906042030 66 345 2.6 7.0 0.00 0.00 0.00 96 1018.1
20260906041046 66 338 1.7 6.1 0.00 0.00 0.00 96 1018.0
20260906040023 66 346 1.7 5.2 0.00 0.00 0.00 95 1018.0
20260906035020 67 341 1.7 6.1 0.00 0.00 0.00 95 1018.0
20260906034017 67 344 1.7 5.2 0.00 0.00 0.00 95 1017.9
20260906033053 67 346 2.6 5.2 0.00 0.00 0.00 95 1017.9
20260906032030 67 348 1.7 5.2 0.00 0.00 0.00 94 1017.9
20260906031027 67 347 1.7 6.1 0.00 0.00 0.00 94 1017.9
20260906030024 67 344 2.6 5.2 0.00 0.00 0.00 93 1017.9
20260906025020 67 344 1.7 7.0 0.00 0.00 0.00 92 1018.0
20260906024018 67 335 1.7 7.8 0.00 0.00 0.00 92 1017.9
20260906023034 67 336 2.6 6.1 0.00 0.00 0.00 92 1017.9
20260906022031 67 343 1.7 5.2 0.00 0.00 0.00 92 1017.9
20260906021028 67 346 2.6 7.0 0.00 0.00 0.00 93 1018.0
20260906020025 67 343 2.6 7.0 0.00 0.00 0.00 94 1017.9
20260906015022 67 337 2.6 7.0 0.00 0.00 0.00 96 1017.8
20260906014018 67 338 1.7 6.1 0.00 0.00 0.00 96 1017.6
20260906013035 67 339 1.7 6.1 0.00 0.00 0.00 96 1017.5
20260906012033 67 346 1.7 7.0 0.00 0.00 0.00 96 1017.6
20260906011048 67 342 2.6 7.0 0.00 0.00 0.00 96 1017.6
20260906010025 67 341 2.6 7.0 0.00 0.00 0.00 96 1017.4
20260906005022 67 349 2.6 7.0 0.00 0.00 0.00 97 1017.4
20260906004018 67 350 2.6 7.0 0.00 0.00 0.00 97 1017.4
20260906003055 67 340 2.6 7.8 0.00 0.00 0.00 96 1017.4
20260906002032 67 351 1.7 7.8 0.00 0.00 0.00 95 1017.4
20260906001029 68 344 1.7 7.0 0.00 0.00 0.00 94 1017.4
20260906000027 68 346 1.7 5.2 0.00 0.00 0.00 92 1017.5
20260905235022 69 355 2.6 9.6 0.00 0.00 0.00 91 1017.6
20260905234019 69 353 3.5 7.0 0.00 0.00 0.00 89 1017.5
20260905233036 70 357 3.5 8.7 0.00 0.00 0.00 86 1017.5
20260905232053 71 350 1.7 6.1 0.00 0.00 0.00 83 1017.6
20260905231030 72 4 2.6 7.0 0.00 0.00 0.00 82 1017.4
20260905230028 72 349 2.6 7.8 0.00 0.00 0.00 81 1017.3
20260905225023 73 348 2.6 7.0 0.00 0.00 0.00 81 1017.3
20260905224021 73 22 1.7 7.8 0.00 0.00 0.00 82 1017.3
20260905223017 72 354 3.5 8.7 0.00 0.00 0.00 83 1017.3
20260905222033 70 352 2.6 6.1 0.00 0.00 0.00 86 1017.3
20260905221030 71 343 3.5 7.8 0.00 0.00 0.00 85 1017.3
20260905220029 72 346 3.5 7.8 0.00 0.00 0.00 83 1017.4
20260905215044 71 2 2.6 7.8 0.00 0.00 0.00 85 1017.4
20260905214021 71 0 2.6 7.8 0.00 0.00 0.00 86 1017.4
20260905213017 71 348 2.6 7.8 0.00 0.00 0.00 87 1017.3
20260905212057 71 358 2.6 7.0 0.00 0.00 0.00 87 1017.3
20260905211052 71 3 2.6 7.0 0.00 0.00 0.00 88 1017.3
20260905210049 71 350 2.6 7.0 0.00 0.00 0.00 88 1017.3
20260905205026 71 350 3.5 7.8 0.00 0.00 0.00 87 1017.3
20260905204021 71 16 3.5 11.3 0.00 0.00 0.00 88 1017.3
20260905203018 70 343 3.5 9.6 0.00 0.00 0.00 90 1017.3
20260905202035 70 1 3.5 8.7 0.00 0.00 0.00 91 1017.3
20260905201033 70 345 2.6 7.0 0.00 0.00 0.00 92 1017.3
20260905200029 70 356 2.6 6.1 0.00 0.00 0.00 92 1017.3
20260905195025 70 343 1.7 6.1 0.00 0.00 0.00 93 1017.3
20260905194022 70 4 2.6 6.1 0.00 0.00 0.00 91 1017.3
20260905193018 70 358 2.6 7.0 0.00 0.00 0.00 91 1017.3
20260905192015 71 356 2.6 6.1 0.00 0.00 0.00 91 1017.3
20260905191032 71 356 1.7 6.1 0.00 0.00 0.00 92 1017.3
20260905190029 70 4 1.7 5.2 0.00 0.00 0.00 93 1017.4
20260905185026 70 7 1.7 5.2 0.00 0.00 0.00 94 1017.6
20260905184024 70 3 1.7 5.2 0.00 0.00 0.00 93 1017.5
20260905183020 71 356 2.6 6.1 0.00 0.00 0.00 92 1017.4
20260905182036 70 360 1.7 7.0 0.00 0.00 0.00 93 1017.4
20260905181033 70 342 3.5 7.0 0.00 0.00 0.00 93 1017.4
20260905180030 70 352 2.6 7.0 0.00 0.00 0.00 94 1017.3
20260905175027 70 351 2.6 7.0 0.00 0.00 0.00 94 1017.3
20260905174044 70 5 2.6 6.1 0.00 0.00 0.00 96 1017.2
20260905173020 69 8 2.6 6.1 0.00 0.00 0.00 96 1017.3
20260905172018 69 355 2.6 6.1 0.00 0.00 0.00 96 1017.3
20260905171034 69 357 3.5 7.8 0.00 0.00 0.00 95 1017.3
20260905170030 70 9 1.7 5.2 0.00 0.00 0.00 94 1017.3
20260905165048 70 354 1.7 5.2 0.00 0.00 0.00 94 1017.4
20260905164024 71 32 0.9 3.5 0.00 0.00 0.00 94 1017.4